Flag for Hungary Weather past 2 weeks in Győr, Hungary

Now
86 °F

Pleasantly warm.


Feels Like: 85 °F
Forecast: 70 / 87 °F
Wind: 1 mph from North

Location: Gyor

Current Time: Jul 2, 2015 at 8:36:47 PM

Latest Report: Jul 2, 2015 at 7:00 PM


Visibility: N/A

Pressure: 30.17 "Hg

Humidity: 38%

Dew point: 57 °F

Location of GyőrLocation

Historic Weather in Győr — Graph

°F

Győr temperature yesterday

Maximum temperature yesterday: 87 °F (at 3:00 PM)
Minimum temperature yesterday: 59 °F (at 6:00 AM)
Average temperature yesterday: 75 °F

Past Weeks' High & Low Weather Summary

 TemperatureHumidityPressure
High88 °F (Jul 2, 4:00 PM)100% (Jul 2, 6:00 AM)30.23 "Hg (Jul 2, 6:00 AM)
Low47 °F (Jun 18, 5:00 AM)31% (Jul 1, 4:00 PM)29.77 "Hg (Jun 23, 6:00 AM)
Average65 °F66%30.06 "Hg
* Reported Jun 17 7:00 PM — Jul 2 7:00 PM, Győr, Weather by CustomWeather, © 2015

Note: Actual official high and low records may vary slightly from our data, if they occured in-between our weather recording intervals... More about our weather records

Advertising

Győr weather history for previous 24 hours

 ConditionsComfort  
Time TempWeatherWind HumidityBarometerVisibility
7:00 PM
Thu, Jul 2
86 °FPleasantly warm.1 mph38%30.17 "HgN/A
6:00 PM87 °FPleasantly warm.1 mph34%30.16 "HgN/A
5:00 PM88 °FHot.2 mph35%30.16 "HgN/A
4:00 PM88 °FHot.2 mph34%30.17 "HgN/A
3:00 PM87 °FPleasantly warm.1 mph34%30.18 "HgN/A
2:00 PM86 °FPleasantly warm.2 mph38%30.19 "HgN/A
1:00 PM85 °FWarm.2 mph41%30.19 "HgN/A
12:00 PM83 °FWarm.2 mph43%30.20 "HgN/A
11:00 AM81 °FWarm.1 mph49%30.19 "HgN/A
10:00 AM77 °FMild.1 mph60%30.20 "HgN/A
9:00 AM73 °FMild.1 mph64%30.20 "HgN/A
8:00 AM70 °FMild.1 mph72%30.20 "HgN/A
7:00 AM66 °FMild.1 mph79%30.19 "HgN/A
6:00 AM61 °FCool.No wind100%30.19 "HgN/A
5:00 AM61 °FCool.No wind98%30.19 "HgN/A
4:00 AM63 °FMild.No wind96%30.18 "HgN/A
3:00 AM64 °FMild.No wind95%30.18 "HgN/A
2:00 AM64 °FMild.No wind92%30.18 "HgN/A
1:00 AM66 °FMild.1 mph87%30.18 "HgN/A
12:00 AM67 °FMild.No wind83%30.18 "HgN/A
10:00 PM
Wed, Jul 1
70 °FMild.No wind72%30.16 "HgN/A
9:00 PM75 °FMild.No wind67%30.14 "HgN/A
8:00 PM83 °FWarm.No wind44%30.12 "HgN/A
Weather by CustomWeather, © 2015

See weather overviewHow to use our weather pages